Hourly Data Report for June 18, 2021

SARNIA
ONTARIO
Current Station Operator: NAVCAN

42°59'58.000" N
82°18'32.000" W
181.40 m
6127510
71704
YZR

Download Data

Hourly Data (June 2021)
Hourly Data Report for June 18, 2021
TIME
LST
Temp Definition
°C
Dew Point Definition
°C
Rel Hum Definition
%
Precip. Amount Definition
mm

Wind Dir Definition
10's deg

Wind Spd Definition
km/h
Visibility Definition
km
Stn Press Definition
kPa
Hmdx Definition


Wind Chill Definition


Weather Definition


00:00 18.5 10.9 61 0.0 18 13 16.1 99.09     LegendNANA
01:00 18.7 11.8 64 0.0 17 13 16.1 99.03     LegendNANA
02:00 19.0 13.0 68 0.0 17 11 16.1 98.95     LegendNANA
03:00 19.1 14.0 72 0.0 18 13 16.1 98.90     LegendNANA
04:00 20.4 14.6 69 0.0 21 13 16.1 98.91     LegendNANA
05:00 19.5 15.0 75 0.0 20 13 16.1 98.92     Rain
06:00 20.7 14.1 66 0.0 21 21 16.1 98.96     Rain
07:00 19.0 15.1 78 0.0 20 17 16.1 98.88     Rain
08:00 18.9 17.7 93 1.8 22 24 16.1 98.98     Rain
09:00 18.5 17.5 94 3.0 20 24 16.1 98.86     Thunderstorms, Rain
10:00 18.7 17.6 93 1.2 19 22 16.1 98.77     Rain
11:00 21.4 18.1 81 0.0 20 32 16.1 98.73 27   LegendNANA
12:00 23.5 18.7 74 0.0 21 30 16.1 98.64 30   LegendNANA
13:00 23.6 18.6 73 0.0 22 32 16.1 98.59 30   LegendNANA
14:00 24.4 19.5 74 0.0 22 22 16.1 98.56 32   LegendNANA
15:00 26.2 19.6 66 0.0 24 24 16.1 98.50 33   LegendNANA
16:00 27.2 18.7 59 0.0 23 30 16.1 98.42 34   LegendNANA
17:00 27.3 19.3 61 0.0 25 28 16.1 98.40 34   LegendNANA
18:00 27.2 19.6 63 0.0 25 21 16.1 98.42 34   LegendNANA
19:00 26.7 19.7 65 0.0 28 21 16.1 98.45 34   LegendNANA
20:00 25.2 19.2 69 0.0 27 11 16.1 98.44 32   LegendNANA
21:00 24.4 19.1 72 0.0 25 15 16.1 98.46 31   LegendNANA
22:00 24.7 18.7 69 0.0 24 18 16.1 98.59 31   LegendNANA
23:00 24.9 19.2 70 0.0 25 22 16.1 98.63 32   LegendNANA

Notes on Data Quality.

Legend

  • E = Estimated
  • M = Missing
  • NA = Not Available*
  • [empty] = Indicates an unobserved value
Date modified: